SP9SDZ-5 Weather Reports


Display with metric or nautical units.
time (UTC)temp
F
wind
direction
speed
MPH
gust
MPH
rain 1hr
in
rain 24hr
in
rain mn
in
humidity
%
barometer
mb
20260905215001 57 315 7.0 10.0 0.00 0.00 0.00 84 1014.9
20260905214504 57 292 4.0 8.0 0.00 0.00 0.00 84 1014.9
20260905214003 58 315 8.0 14.0 0.00 0.00 0.00 84 1014.9
20260905213503 58 315 6.0 9.0 0.00 0.00 0.00 84 1014.8
20260905213008 58 315 6.0 10.0 0.00 0.00 0.00 84 1014.8
20260905212502 58 292 4.0 7.0 0.00 0.00 0.00 83 1014.7
20260905212001 58 315 3.0 7.0 0.00 0.00 0.00 83 1014.7
20260905211501 58 270 5.0 7.0 0.00 0.00 0.00 83 1014.7
20260905211002 59 270 6.0 10.0 0.00 0.00 0.00 82 1014.6
20260905210507 59 270 8.0 16.0 0.00 0.00 0.00 82 1014.6
20260905210005 59 292 2.0 7.0 0.00 0.00 0.00 81 1014.5
20260905205501 59 248 3.0 8.0 0.00 0.00 0.00 81 1014.4
20260905205003 59 292 4.0 8.0 0.00 0.00 0.00 81 1014.3
20260905204507 59 315 8.0 14.0 0.00 0.00 0.00 81 1014.3
20260905204006 59 315 5.0 7.0 0.00 0.00 0.00 81 1014.2
20260905203504 59 292 9.0 16.0 0.00 0.00 0.00 81 1014.2
20260905203006 59 315 5.0 9.0 0.00 0.00 0.00 81 1014.1
20260905202503 60 292 4.0 10.0 0.00 0.00 0.00 80 1014.1
20260905202007 60 292 5.0 9.0 0.00 0.00 0.00 80 1014.0
20260905201505 60 292 5.0 10.0 0.00 0.00 0.00 80 1014.0
20260905201000 60 270 3.0 6.0 0.00 0.00 0.00 80 1013.9
20260905200503 60 315 8.0 13.0 0.00 0.00 0.00 79 1014.0
20260905200007 60 270 8.0 14.0 0.00 0.00 0.00 79 1014.1
20260905195506 60 315 4.0 7.0 0.00 0.00 0.00 79 1014.0
20260905195002 60 270 4.0 10.0 0.00 0.00 0.00 78 1014.0
20260905194505 60 315 5.0 8.0 0.00 0.00 0.00 78 1014.0
20260905194003 60 315 6.0 13.0 0.00 0.00 0.00 78 1014.1
20260905193506 60 292 5.0 12.0 0.00 0.00 0.00 78 1014.0
20260905193006 60 292 5.0 8.0 0.00 0.00 0.00 78 1013.8
20260905192501 60 270 5.0 8.0 0.00 0.00 0.00 78 1013.8
20260905192004 60 315 4.0 11.0 0.00 0.00 0.00 78 1013.9
20260905191500 59 270 6.0 12.0 0.00 0.00 0.00 79 1014.0
20260905191004 59 248 2.0 5.0 0.00 0.00 0.00 81 1014.0
20260905190504 59 225 3.0 8.0 0.00 0.00 0.00 81 1014.0
20260905190002 59 225 1.0 4.0 0.00 0.00 0.00 81 1014.0
20260905185503 59 225 4.0 9.0 0.00 0.00 0.00 82 1014.0
20260905185005 59 248 3.0 5.0 0.00 0.00 0.00 82 1014.0
20260905184507 59 225 3.0 6.0 0.00 0.00 0.00 82 1014.2
20260905184003 59 292 2.0 5.0 0.00 0.00 0.00 83 1014.2
20260905183506 59 248 4.0 6.0 0.00 0.00 0.00 83 1014.3
20260905183001 59 270 1.0 3.0 0.00 0.00 0.00 83 1014.4
20260905182502 59 270 3.0 4.0 0.00 0.00 0.00 83 1014.4
20260905182004 59 270 2.0 5.0 0.00 0.00 0.00 82 1014.4
20260905181506 59 270 2.0 4.0 0.00 0.00 0.00 82 1014.4
20260905181003 59 248 3.0 5.0 0.00 0.00 0.00 81 1014.4
20260905180507 59 225 1.0 3.0 0.00 0.00 0.00 80 1014.3
20260905180006 60 270 1.0 3.0 0.00 0.00 0.00 79 1014.2
20260905175503 60 270 1.0 3.0 0.00 0.00 0.00 79 1014.2
20260905175005 60 270 2.0 6.0 0.00 0.00 0.00 78 1014.3
20260905174501 60 292 2.0 5.0 0.00 0.00 0.00 77 1014.1
20260905174001 60 292 2.0 5.0 0.00 0.00 0.00 77 1014.1
20260905173506 60 315 3.0 5.0 0.00 0.00 0.00 77 1013.9
20260905173004 60 315 3.0 6.0 0.00 0.00 0.00 76 1013.9
20260905172501 60 292 2.0 5.0 0.00 0.00 0.00 76 1013.9
20260905172001 60 248 2.0 5.0 0.00 0.00 0.00 76 1013.8
20260905171506 61 315 3.0 5.0 0.00 0.00 0.00 75 1013.9
20260905171005 61 292 7.0 10.0 0.00 0.00 0.00 74 1014.0
20260905170501 61 248 1.0 5.0 0.00 0.00 0.00 73 1014.0
20260905170003 61 292 4.0 9.0 0.00 0.00 0.00 73 1013.9
20260905165506 61 270 6.0 8.0 0.00 0.00 0.00 73 1014.0
20260905165006 61 292 4.0 6.0 0.00 0.00 0.00 73 1014.1
20260905164504 61 292 3.0 5.0 0.00 0.00 0.00 73 1014.0
20260905164001 61 292 3.0 7.0 0.00 0.00 0.00 73 1014.0
20260905163503 61 292 1.0 3.0 0.00 0.00 0.00 72 1013.8
20260905163006 62 292 2.0 4.0 0.00 0.00 0.00 72 1013.7
20260905162505 62 270 4.0 7.0 0.00 0.00 0.00 72 1013.7
20260905162003 62 292 6.0 10.0 0.00 0.00 0.00 71 1013.7
20260905161503 62 315 5.0 12.0 0.00 0.00 0.00 71 1013.6
20260905161002 62 270 2.0 7.0 0.00 0.00 0.00 71 1013.6
20260905160506 62 22 2.0 8.0 0.00 0.00 0.00 72 1013.6
20260905160004 61 292 5.0 7.0 0.00 0.00 0.00 73 1013.5
20260905155502 61 315 4.0 8.0 0.00 0.00 0.00 73 1013.5
20260905155005 61 315 6.0 9.0 0.00 0.00 0.00 73 1013.6
20260905154502 62 270 6.0 10.0 0.00 0.00 0.00 72 1013.8
20260905154003 62 270 7.0 14.0 0.00 0.00 0.00 72 1013.8
20260905153503 62 292 8.0 14.0 0.00 0.00 0.00 72 1013.9
20260905153003 62 315 7.0 13.0 0.00 0.00 0.00 72 1013.7
20260905152503 62 292 10.0 19.0 0.00 0.00 0.00 74 1013.6
20260905152005 63 292 9.0 15.0 0.00 0.00 0.00 74 1013.5
20260905151502 63 292 9.0 18.0 0.00 0.00 0.00 73 1013.5
20260905151000 64 315 13.0 20.0 0.00 0.00 0.00 70 1013.4
20260905150501 65 292 13.0 20.0 0.00 0.00 0.00 68 1013.4
20260905150000 66 315 13.0 23.0 0.00 0.00 0.00 65 1013.2
20260905145504 66 270 9.0 15.0 0.00 0.00 0.00 62 1013.0
20260905145004 67 315 8.0 12.0 0.00 0.00 0.00 61 1012.9
20260905144502 67 270 10.0 23.0 0.00 0.00 0.00 61 1012.8
20260905144003 67 315 7.0 11.0 0.00 0.00 0.00 61 1012.9
20260905143505 67 292 8.0 17.0 0.00 0.00 0.00 61 1012.9
20260905143004 67 292 9.0 16.0 0.00 0.00 0.00 61 1012.7
20260905142502 68 315 9.0 18.0 0.00 0.00 0.00 60 1012.8
20260905142001 68 315 9.0 14.0 0.00 0.00 0.00 60 1012.7
20260905141501 68 315 9.0 14.0 0.00 0.00 0.00 60 1012.5
20260905141000 68 315 13.0 22.0 0.00 0.00 0.00 60 1012.6
20260905140504 68 315 10.0 19.0 0.00 0.00 0.00 59 1012.6
20260905140001 68 292 9.0 18.0 0.00 0.00 0.00 59 1012.5
20260905135503 68 315 9.0 11.0 0.00 0.00 0.00 61 1012.5
20260905135001 68 270 8.0 13.0 0.00 0.00 0.00 62 1012.5
20260905134802 68 225 8.0 14.0 0.00 0.00 0.00 62 1012.6